Total_Precipitation_Accumulation
0.53 0.53 0.57 0.60 0.63 0.72 0.84 0.92 0.94 0.93 0.91 0.97 1.07 1.15 1.14 1.14 1.13 1.09 1.03 0.98 0.94 0.89 0.87 0.90 0.92 0.91 0.97 1.00 1.04 1.12 1.22 1.36 1.41 1.16 0.98 0.96 1.00 1.00 0.99 0.90 0.84 0.84 0.83
0.42 0.41 0.42 0.44 0.46 0.51 0.61 0.70 0.75 0.79 0.82 0.82 0.81 0.84 0.91 0.96 0.99 1.01 0.98 0.92 0.87 0.84 0.81 0.83 0.84 0.86 0.93 0.98 1.05 1.11 1.17 1.24 1.29 1.18 1.00 0.92 0.86 0.79 0.75 0.71 0.65 0.63 0.62
0.32 0.32 0.33 0.34 0.33 0.35 0.39 0.45 0.49 0.56 0.65 0.70 0.69 0.68 0.68 0.68 0.72 0.79 0.84 0.86 0.84 0.81 0.82 0.84 0.85 0.89 0.93 0.97 1.04 1.10 1.11 1.09 1.06 1.00 0.86 0.73 0.67 0.63 0.63 0.59 0.53 0.52 0.50
0.26 0.26 0.27 0.27 0.28 0.28 0.28 0.31 0.34 0.35 0.39 0.43 0.47 0.50 0.54 0.55 0.54 0.57 0.63 0.71 0.78 0.82 0.83 0.85 0.89 0.97 1.04 1.08 1.08 1.07 1.04 0.99 0.93 0.88 0.80 0.70 0.61 0.54 0.55 0.56 0.52 0.46 0.43
0.24 0.21 0.20 0.20 0.22 0.23 0.22 0.21 0.20 0.19 0.20 0.24 0.29 0.33 0.37 0.42 0.46 0.49 0.51 0.56 0.62 0.69 0.79 0.86 0.91 1.01 1.04 0.98 0.90 0.83 0.78 0.77 0.76 0.76 0.72 0.62 0.54 0.49 0.47 0.43 0.43 0.42 0.40
0.21 0.19 0.18 0.19 0.20 0.20 0.18 0.15 0.14 0.14 0.15 0.17 0.21 0.25 0.30 0.34 0.47 0.48 0.45 0.47 0.56 0.62 0.67 0.72 0.79 0.83 0.78 0.74 0.69 0.64 0.64 0.68 0.68 0.62 0.54 0.46 0.38 0.34 0.34 0.38 0.42 0.49 0.48
0.28 0.24 0.21 0.21 0.21 0.21 0.21 0.21 0.20 0.19 0.21 0.22 0.23 0.25 0.29 0.37 0.48 0.49 0.54 0.52 0.56 0.59 0.59 0.57 0.55 0.54 0.55 0.47 0.48 0.49 0.49 0.51 0.48 0.44 0.42 0.35 0.31 0.29 0.35 0.43 0.44 0.44 0.37
0.40 0.38 0.34 0.35 0.37 0.39 0.41 0.41 0.39 0.38 0.38 0.38 0.39 0.39 0.42 0.51 0.57 0.53 0.52 0.48 0.48 0.47 0.43 0.39 0.36 0.35 0.36 0.38 0.40 0.42 0.36 0.31 0.30 0.27 0.25 0.24 0.26 0.30 0.38 0.45 0.46 0.45 0.38
0.57 0.62 0.61 0.60 0.63 0.67 0.71 0.73 0.70 0.66 0.65 0.64 0.64 0.62 0.59 0.58 0.53 0.43 0.37 0.33 0.32 0.29 0.26 0.24 0.23 0.23 0.27 0.32 0.33 0.33 0.31 0.28 0.28 0.28 0.29 0.28 0.31 0.34 0.37 0.42 0.50 0.59 0.54
0.71 0.76 0.74 0.72 0.73 0.74 0.75 0.74 0.71 0.65 0.62 0.59 0.57 0.53 0.47 0.40 0.34 0.25 0.20 0.17 0.16 0.15 0.15 0.15 0.18 0.20 0.27 0.34 0.31 0.30 0.29 0.27 0.28 0.30 0.29 0.28 0.27 0.28 0.33 0.32 0.37 0.58 0.60
0.70 0.67 0.61 0.57 0.52 0.49 0.46 0.44 0.42 0.38 0.35 0.32 0.29 0.25 0.20 0.16 0.14 0.13 0.12 0.09 0.09 0.12 0.14 0.14 0.16 0.23 0.29 0.35 0.36 0.31 0.29 0.31 0.31 0.31 0.31 0.31 0.31 0.31 0.30 0.28 0.29 0.46 0.63
0.44 0.37 0.31 0.29 0.26 0.24 0.22 0.21 0.19 0.17 0.15 0.13 0.10 0.08 0.07 0.06 0.08 0.09 0.12 0.13 0.14 0.13 0.13 0.13 0.16 0.25 0.31 0.33 0.33 0.33 0.36 0.38 0.32 0.32 0.33 0.32 0.30 0.30 0.29 0.28 0.27 0.29 0.36
0.13 0.11 0.09 0.09 0.09 0.08 0.08 0.07 0.06 0.05 0.04 0.04 0.04 0.04 0.04 0.05 0.07 0.10 0.12 0.15 0.18 0.17 0.15 0.18 0.23 0.28 0.29 0.27 0.28 0.32 0.35 0.33 0.31 0.32 0.30 0.26 0.24 0.25 0.28 0.32 0.35 0.35 0.35
0.04 0.04 0.04 0.04 0.04 0.04 0.05 0.05 0.05 0.05 0.05 0.06 0.06 0.06 0.06 0.07 0.08 0.10 0.13 0.16 0.19 0.20 0.18 0.19 0.23 0.26 0.27 0.27 0.28 0.29 0.29 0.29 0.32 0.32 0.29 0.27 0.27 0.31 0.34 0.35 0.40 0.43 0.47
0.05 0.05 0.06 0.06 0.06 0.06 0.07 0.08 0.09 0.08 0.10 0.12 0.11 0.12 0.13 0.12 0.11 0.17 0.22 0.22 0.24 0.26 0.28 0.28 0.27 0.25 0.25 0.25 0.25 0.25 0.26 0.29 0.32 0.32 0.35 0.36 0.36 0.36 0.36 0.36 0.43 0.50 0.54
0.08 0.08 0.09 0.10 0.11 0.12 0.12 0.12 0.14 0.15 0.16 0.17 0.17 0.17 0.16 0.17 0.20 0.25 0.27 0.29 0.32 0.37 0.41 0.34 0.26 0.24 0.23 0.23 0.24 0.25 0.26 0.28 0.29 0.34 0.40 0.43 0.45 0.46 0.45 0.42 0.46 0.54 0.53
0.14 0.16 0.17 0.17 0.18 0.18 0.19 0.19 0.18 0.19 0.22 0.21 0.19 0.19 0.20 0.22 0.25 0.27 0.28 0.31 0.34 0.40 0.38 0.27 0.20 0.20 0.22 0.23 0.26 0.29 0.30 0.28 0.34 0.43 0.47 0.49 0.53 0.54 0.54 0.53 0.52 0.55 0.54
0.13 0.16 0.17 0.17 0.18 0.20 0.21 0.22 0.23 0.22 0.21 0.19 0.19 0.22 0.23 0.25 0.27 0.29 0.32 0.38 0.37 0.33 0.27 0.21 0.19 0.20 0.24 0.28 0.31 0.34 0.36 0.38 0.42 0.46 0.48 0.51 0.58 0.65 0.64 0.58 0.56 0.59 0.62
0.13 0.15 0.18 0.19 0.20 0.22 0.23 0.24 0.24 0.23 0.22 0.20 0.19 0.22 0.28 0.32 0.34 0.33 0.36 0.36 0.30 0.23 0.19 0.19 0.20 0.25 0.29 0.33 0.37 0.40 0.44 0.46 0.45 0.49 0.50 0.50 0.58 0.71 0.68 0.56 0.58 0.60 0.68
0.15 0.21 0.25 0.25 0.25 0.25 0.26 0.28 0.28 0.27 0.25 0.24 0.22 0.23 0.33 0.44 0.39 0.31 0.29 0.27 0.24 0.22 0.21 0.24 0.25 0.30 0.35 0.40 0.43 0.47 0.49 0.47 0.48 0.51 0.51 0.53 0.58 0.70 0.71 0.63 0.63 0.68 0.65
0.17 0.21 0.29 0.29 0.25 0.26 0.28 0.30 0.31 0.32 0.30 0.27 0.24 0.28 0.46 0.52 0.41 0.31 0.27 0.26 0.27 0.27 0.29 0.33 0.34 0.36 0.40 0.44 0.47 0.48 0.49 0.46 0.46 0.52 0.54 0.56 0.63 0.69 0.64 0.66 0.66 0.68 0.75
0.19 0.21 0.24 0.26 0.26 0.28 0.33 0.35 0.36 0.35 0.31 0.29 0.27 0.31 0.45 0.44 0.36 0.32 0.30 0.29 0.29 0.31 0.36 0.42 0.42 0.38 0.43 0.51 0.57 0.59 0.54 0.46 0.45 0.53 0.59 0.59 0.64 0.66 0.68 0.73 0.75 0.81 0.84
0.22 0.23 0.24 0.25 0.26 0.31 0.34 0.31 0.32 0.32 0.31 0.30 0.30 0.31 0.35 0.36 0.32 0.31 0.31 0.32 0.34 0.37 0.39 0.45 0.45 0.40 0.40 0.49 0.58 0.70 0.71 0.56 0.52 0.63 0.78 0.79 0.78 0.80 0.86 0.89 0.84 0.82 0.72
0.22 0.24 0.25 0.25 0.27 0.28 0.29 0.28 0.28 0.30 0.31 0.32 0.31 0.30 0.30 0.31 0.31 0.31 0.33 0.35 0.39 0.40 0.41 0.44 0.44 0.42 0.42 0.49 0.54 0.57 0.62 0.70 0.88 1.00 1.14 1.32 1.22 1.05 0.99 0.92 0.80 0.73 0.72
0.23 0.25 0.27 0.29 0.30 0.30 0.31 0.30 0.30 0.30 0.32 0.32 0.32 0.31 0.30 0.31 0.31 0.31 0.33 0.37 0.40 0.40 0.39 0.41 0.44 0.45 0.46 0.49 0.51 0.52 0.59 0.73 0.98 1.32 1.46 1.39 1.18 0.99 0.97 0.91 0.79 0.75 0.74
0.24 0.26 0.29 0.30 0.31 0.31 0.32 0.32 0.31 0.31 0.32 0.32 0.33 0.34 0.34 0.33 0.33 0.33 0.35 0.38 0.40 0.39 0.38 0.39 0.40 0.44 0.49 0.51 0.48 0.51 0.61 0.69 0.77 0.91 1.20 1.28 1.13 0.97 0.97 1.01 0.89 0.83 0.82